sat.trackr.live / text

‹ back to catalog

STARLINK-35524

NORAD 65914 · 2025-225E

PAYLOAD ACTIVE UNKNOWN

§ Identity

Operator
Country
US
Launch date
2025-10-08
Launch site
AFWTR
Launch vehicle
Mass (kg)
RCS (m²)

Purposes: comms

External: N2YO · Heavens-Above · Gunter

§ Orbital elements

Epoch: 2026-05-24T11:02:03.342624Z

Period
94.10 min
Inclination
53.1581°
Eccentricity
0.0001163
Mean motion
15.30209829 rev/d
Perigee alt
474.4 km
Apogee alt
476.0 km
Semi-major
6,853.3 km
B*
1.2364e-4
RAAN
173.3944°
Arg perigee
87.8823°
Mean anomaly
272.2311°
Rev number
3,601

§ Raw data

STARLINK-355241 65914U 25225E   26144.45976091  .00003305  00000+0  12364-3 0  99982 65914  53.1581 173.3944 0001163  87.8823 272.2311 15.30209829 36015

JSON: /api/v1/satellites/65914 · /tle

For live sub-satellite position, see the globe view (requires WebGL).

§ Visibility from observer

Set your observer location to see the next 7 days of passes ≥ 10°. The values pass through the URL so the page stays shareable.

No JS? Fill the form by hand. The geolocation button needs JavaScript.